Time,TemperatureF,DewpointF,PressureIn,WindDirection,WindDirectionDegrees,WindSpeedMPH,WindSpeedGustMPH,Humidity,HourlyPrecipIn,Conditions,Clouds,dailyrainin,SoftwareType,DateUTC
2013-01-24 00:00:00,18.0,-99.9,-100.00,North,360,0.0,0.0,-999,-99.99,,,0.00,,2013-01-24 07:00:00,
2013-01-24 00:53:00,18.0,-99.9,-100.00,North,360,0.0,0.0,-999,-99.99,,,0.00,,2013-01-24 07:53:00,
2013-01-24 01:00:00,17.0,-99.9,-100.00,North,-999,-999.0,-999.0,-999,-99.99,,,0.00,,2013-01-24 08:00:00,
2013-01-24 02:00:00,13.0,-99.9,-100.00,North,-999,-999.0,-999.0,-999,-99.99,,,0.00,,2013-01-24 09:00:00,
2013-01-24 02:54:00,13.0,-99.9,-100.00,North,-999,-999.0,-999.0,-999,-99.99,,,0.00,,2013-01-24 09:54:00,
2013-01-24 03:00:00,11.0,-99.9,-100.00,North,0,0.0,0.0,-999,-99.99,,,0.00,,2013-01-24 10:00:00,
2013-01-24 03:53:00,11.0,-99.9,-100.00,North,0,0.0,0.0,-999,-99.99,,,0.00,,2013-01-24 10:53:00,
2013-01-24 04:00:00,11.0,-99.9,-100.00,North,-999,-999.0,-999.0,-999,-99.99,,,0.00,,2013-01-24 11:00:00,
2013-01-24 04:54:00,11.0,-99.9,-100.00,North,-999,-999.0,-999.0,-999,-99.99,,,0.00,,2013-01-24 11:54:00,
2013-01-24 05:00:00,9.0,-99.9,-100.00,North,0,0.0,1.0,-999,-99.99,,,-99.99,,2013-01-24 12:00:00,
2013-01-24 05:53:00,9.0,-99.9,-100.00,North,0,0.0,1.0,-999,-99.99,,,-99.99,,2013-01-24 12:53:00,
2013-01-24 06:00:00,10.0,-99.9,-100.00,North,0,0.0,0.0,-999,-99.99,,,0.00,,2013-01-24 13:00:00,
2013-01-24 06:53:00,10.0,-99.9,-100.00,North,0,0.0,0.0,-999,-99.99,,,0.00,,2013-01-24 13:53:00,
2013-01-24 07:00:00,14.0,-99.9,-100.00,North,-999,-999.0,-999.0,-999,-99.99,,,0.00,,2013-01-24 14:00:00,
2013-01-24 07:55:00,14.0,-99.9,-100.00,North,-999,-999.0,-999.0,-999,-99.99,,,0.00,,2013-01-24 14:55:00,
2013-01-24 08:00:00,14.0,-99.9,-100.00,North,0,0.0,1.0,-999,-99.99,,,0.00,,2013-01-24 15:00:00,
2013-01-24 08:53:00,14.0,-99.9,-100.00,North,0,0.0,1.0,-999,-99.99,,,0.00,,2013-01-24 15:53:00,
2013-01-24 09:00:00,22.0,-99.9,-100.00,North,0,0.0,0.0,-999,-99.99,,,0.00,,2013-01-24 16:00:00,
2013-01-24 10:00:00,34.0,-99.9,-100.00,North,0,0.0,0.0,-999,-99.99,,,0.00,,2013-01-24 17:00:00,
2013-01-24 10:53:00,34.0,-99.9,-100.00,North,0,0.0,0.0,-999,-99.99,,,0.00,,2013-01-24 17:53:00,
2013-01-24 11:00:00,47.0,-99.9,-100.00,North,-999,-999.0,-999.0,-999,-99.99,,,0.00,,2013-01-24 18:00:00,
2013-01-24 11:54:00,47.0,-99.9,-100.00,North,-999,-999.0,-999.0,-999,-99.99,,,0.00,,2013-01-24 18:54:00,
2013-01-24 12:00:00,46.0,-99.9,-100.00,North,0,5.0,19.0,-999,-99.99,,,0.00,,2013-01-24 19:00:00,
2013-01-24 12:53:00,46.0,-99.9,-100.00,North,0,5.0,19.0,-999,-99.99,,,0.00,,2013-01-24 19:53:00,
2013-01-24 13:00:00,42.0,-99.9,-100.00,North,0,4.0,12.0,-999,-99.99,,,0.00,,2013-01-24 20:00:00,
2013-01-24 13:53:00,42.0,-99.9,-100.00,North,0,4.0,12.0,-999,-99.99,,,0.00,,2013-01-24 20:53:00,
2013-01-24 14:00:00,41.0,-99.9,-100.00,North,360,1.0,9.0,-999,-99.99,,,0.00,,2013-01-24 21:00:00,
2013-01-24 14:53:00,41.0,-99.9,-100.00,North,360,1.0,9.0,-999,-99.99,,,0.00,,2013-01-24 21:53:00,
2013-01-24 15:00:00,42.0,-99.9,-100.00,North,-999,-999.0,-999.0,-999,-99.99,,,-99.99,,2013-01-24 22:00:00,
2013-01-24 15:53:00,42.0,-99.9,-100.00,North,-999,-999.0,-999.0,-999,-99.99,,,-99.99,,2013-01-24 22:53:00,
2013-01-24 16:00:00,41.0,-99.9,-100.00,North,-999,-999.0,-999.0,-999,-99.99,,,0.00,,2013-01-24 23:00:00,
2013-01-24 16:53:00,41.0,-99.9,-100.00,North,-999,-999.0,-999.0,-999,-99.99,,,0.00,,2013-01-24 23:53:00,
2013-01-24 17:00:00,39.0,-99.9,-100.00,North,0,1.0,10.0,-999,-99.99,,,-99.99,,2013-01-25 00:00:00,
2013-01-24 17:53:00,39.0,-99.9,-100.00,North,0,1.0,10.0,-999,-99.99,,,-99.99,,2013-01-25 00:53:00,
2013-01-24 18:00:00,37.0,-99.9,-100.00,North,-999,-999.0,-999.0,-999,-99.99,,,0.00,,2013-01-25 01:00:00,
2013-01-24 18:52:00,37.0,-99.9,-100.00,North,-999,-999.0,-999.0,-999,-99.99,,,0.00,,2013-01-25 01:52:00,
2013-01-24 19:00:00,34.0,-99.9,-100.00,North,-999,-999.0,-999.0,-999,-99.99,,,0.00,,2013-01-25 02:00:00,
2013-01-24 19:53:00,34.0,-99.9,-100.00,North,-999,-999.0,-999.0,-999,-99.99,,,0.00,,2013-01-25 02:53:00,
2013-01-24 20:00:00,33.0,-99.9,-100.00,North,-999,-999.0,-999.0,-999,-99.99,,,0.00,,2013-01-25 03:00:00,
2013-01-24 20:53:00,33.0,-99.9,-100.00,North,-999,-999.0,-999.0,-999,-99.99,,,0.00,,2013-01-25 03:53:00,
2013-01-24 21:00:00,35.0,-99.9,-100.00,North,-999,-999.0,-999.0,-999,-99.99,,,0.01,,2013-01-25 04:00:00,
2013-01-24 21:52:00,35.0,-99.9,-100.00,North,-999,-999.0,-999.0,-999,-99.99,,,0.01,,2013-01-25 04:52:00,
2013-01-24 22:00:00,33.0,-99.9,-100.00,North,-999,-999.0,-999.0,-999,-99.99,,,0.00,,2013-01-25 05:00:00,
2013-01-24 22:52:00,33.0,-99.9,-100.00,North,-999,-999.0,-999.0,-999,-99.99,,,0.00,,2013-01-25 05:52:00,
2013-01-24 23:00:00,33.0,-99.9,-100.00,North,0,0.0,0.0,-999,-99.99,,,0.01,,2013-01-25 06:00:00,
2013-01-24 23:52:00,33.0,-99.9,-100.00,North,0,0.0,0.0,-999,-99.99,,,0.01,,2013-01-25 06:52:00,